TimeEDT,TemperatureF,Dew PointF,Humidity,Sea Level PressureIn,VisibilityMPH,Wind Direction,Wind SpeedMPH,Gust SpeedMPH,PrecipitationIn,Events,Conditions,WindDirDegrees,DateUTC
12:15 AM,62.6,61.5,96,29.91,10.0,Calm,Calm,-,N/A,,Overcast,0,2013-05-24 04:15:00
12:35 AM,61.7,61.0,97,29.91,7.0,Calm,Calm,-,N/A,,Overcast,0,2013-05-24 04:35:00
12:55 AM,62.2,61.3,97,29.91,7.0,Calm,Calm,-,N/A,,Overcast,0,2013-05-24 04:55:00
1:15 AM,61.7,60.8,97,29.91,7.0,Calm,Calm,-,N/A,,Overcast,0,2013-05-24 05:15:00
1:35 AM,60.8,60.1,97,29.91,5.0,Calm,Calm,-,N/A,,Mostly Cloudy,0,2013-05-24 05:35:00
1:55 AM,60.8,60.1,97,29.91,5.0,Calm,Calm,-,N/A,,Scattered Clouds,0,2013-05-24 05:55:00
2:15 AM,59.4,59.0,99,29.90,2.5,Calm,Calm,-,N/A,,Mostly Cloudy,0,2013-05-24 06:15:00
2:35 AM,59.9,59.5,99,29.89,7.0,Calm,Calm,-,N/A,,Mostly Cloudy,0,2013-05-24 06:35:00
2:55 AM,60.3,59.9,99,29.89,10.0,Calm,Calm,-,N/A,,Overcast,0,2013-05-24 06:55:00
3:15 AM,59.9,59.0,97,29.88,10.0,Calm,Calm,-,N/A,,Overcast,0,2013-05-24 07:15:00
3:35 AM,59.0,58.1,97,29.88,7.0,Calm,Calm,-,N/A,,Mostly Cloudy,0,2013-05-24 07:35:00
3:55 AM,59.0,57.7,96,29.89,10.0,NW,3.5,-,N/A,,Overcast,320,2013-05-24 07:55:00
4:15 AM,58.1,57.2,97,29.89,10.0,Calm,Calm,-,N/A,,Scattered Clouds,0,2013-05-24 08:15:00
4:35 AM,58.5,57.2,96,29.89,10.0,Calm,Calm,-,0.01,,Mostly Cloudy,0,2013-05-24 08:35:00
4:55 AM,58.1,56.8,96,29.89,7.0,Calm,Calm,-,0.01,,Mostly Cloudy,0,2013-05-24 08:55:00
5:15 AM,56.7,56.1,98,29.89,0.8,Calm,Calm,-,N/A,,Mist,0,2013-05-24 09:15:00
5:35 AM,55.8,55.4,99,29.90,1.5,Calm,Calm,-,N/A,,Mist,0,2013-05-24 09:35:00
5:55 AM,56.1,55.6,98,29.90,4.0,Calm,Calm,-,N/A,,Mostly Cloudy,0,2013-05-24 09:55:00
6:15 AM,56.3,55.9,99,29.91,2.5,Calm,Calm,-,N/A,,Overcast,0,2013-05-24 10:15:00
6:35 AM,56.5,56.3,99,29.92,4.0,Calm,Calm,-,N/A,,Mostly Cloudy,0,2013-05-24 10:35:00
6:55 AM,55.9,55.6,99,29.92,1.5,Calm,Calm,-,N/A,,Mist,0,2013-05-24 10:55:00
7:15 AM,57.2,56.8,99,29.93,7.0,Calm,Calm,-,N/A,,Clear,0,2013-05-24 11:15:00
7:35 AM,59.9,57.4,91,29.94,10.0,North,5.8,-,N/A,,Scattered Clouds,350,2013-05-24 11:35:00
7:55 AM,61.2,56.7,85,29.95,10.0,NNW,9.2,-,N/A,,Scattered Clouds,330,2013-05-24 11:55:00
8:15 AM,62.6,55.6,78,29.97,10.0,NW,11.5,19.6,N/A,,Clear,310,2013-05-24 12:15:00
8:35 AM,62.4,53.6,73,29.98,10.0,NW,13.8,-,N/A,,Scattered Clouds,320,2013-05-24 12:35:00
8:55 AM,60.8,52.5,74,30.00,10.0,NNW,13.8,24.2,N/A,,Mostly Cloudy,330,2013-05-24 12:55:00
9:15 AM,60.1,49.6,68,30.02,10.0,NNW,16.1,23.0,N/A,,Mostly Cloudy,340,2013-05-24 13:15:00
9:35 AM,60.6,49.3,66,30.05,10.0,NNW,12.7,-,N/A,,Overcast,340,2013-05-24 13:35:00
9:55 AM,61.0,48.0,62,30.05,10.0,NNW,18.4,25.3,N/A,,Mostly Cloudy,330,2013-05-24 13:55:00
10:15 AM,58.1,45.1,62,30.07,10.0,North,15.0,25.3,N/A,,Scattered Clouds,350,2013-05-24 14:15:00
10:35 AM,59.4,44.8,58,30.08,10.0,NNW,23.0,29.9,N/A,,Scattered Clouds,340,2013-05-24 14:35:00
10:55 AM,60.3,45.5,58,30.09,10.0,NNW,15.0,28.8,N/A,,Scattered Clouds,340,2013-05-24 14:55:00
11:15 AM,61.0,45.9,58,30.10,10.0,NNW,18.4,28.8,N/A,,Scattered Clouds,330,2013-05-24 15:15:00
11:35 AM,60.3,44.6,56,30.11,10.0,NNW,17.3,24.2,N/A,,Mostly Cloudy,330,2013-05-24 15:35:00
11:55 AM,60.4,44.8,56,30.12,10.0,NNW,16.1,23.0,N/A,,Overcast,340,2013-05-24 15:55:00
12:15 PM,61.7,44.6,53,30.12,10.0,NNW,20.7,27.6,N/A,,Mostly Cloudy,330,2013-05-24 16:15:00
12:35 PM,62.1,45.3,54,30.13,10.0,NNW,19.6,25.3,N/A,,Mostly Cloudy,340,2013-05-24 16:35:00
12:55 PM,62.6,43.9,50,30.12,10.0,North,17.3,26.5,N/A,,Scattered Clouds,350,2013-05-24 16:55:00
1:15 PM,62.6,45.0,52,30.12,10.0,NNW,19.6,25.3,N/A,,Scattered Clouds,340,2013-05-24 17:15:00
1:35 PM,62.6,44.8,52,30.13,10.0,NNW,15.0,24.2,N/A,,Scattered Clouds,340,2013-05-24 17:35:00
1:55 PM,61.7,42.6,50,30.14,10.0,NNW,13.8,26.5,N/A,,Mostly Cloudy,330,2013-05-24 17:55:00
2:15 PM,62.6,40.3,44,30.14,10.0,North,15.0,28.8,N/A,,Scattered Clouds,350,2013-05-24 18:15:00
2:35 PM,63.3,40.8,44,30.14,10.0,NNW,16.1,26.5,N/A,,Scattered Clouds,340,2013-05-24 18:35:00
2:55 PM,63.7,39.0,40,30.14,10.0,NNW,15.0,29.9,N/A,,Scattered Clouds,330,2013-05-24 18:55:00
3:15 PM,63.3,39.2,41,30.14,10.0,NNW,12.7,24.2,N/A,,Scattered Clouds,340,2013-05-24 19:15:00
3:35 PM,64.4,39.7,40,30.13,10.0,NNW,17.3,27.6,N/A,,Clear,340,2013-05-24 19:35:00
3:55 PM,64.9,39.6,39,30.13,10.0,NNW,10.4,20.7,N/A,,Clear,340,2013-05-24 19:55:00
4:15 PM,64.8,37.8,37,30.13,10.0,NNW,18.4,26.5,N/A,,Clear,340,2013-05-24 20:15:00
4:35 PM,65.1,40.3,40,30.12,10.0,NNW,16.1,26.5,N/A,,Clear,340,2013-05-24 20:35:00
4:55 PM,64.6,36.5,35,30.12,10.0,North,15.0,25.3,N/A,,Clear,350,2013-05-24 20:55:00
5:15 PM,64.6,36.5,35,30.13,10.0,North,13.8,25.3,N/A,,Clear,350,2013-05-24 21:15:00
5:35 PM,64.6,35.4,34,30.13,10.0,NNW,19.6,25.3,N/A,,Clear,330,2013-05-24 21:35:00
5:55 PM,64.4,35.6,34,30.14,10.0,NW,18.4,24.2,N/A,,Clear,320,2013-05-24 21:55:00
6:15 PM,64.0,34.5,33,30.14,10.0,NNW,16.1,25.3,N/A,,Clear,330,2013-05-24 22:15:00
6:35 PM,63.5,35.1,35,30.14,10.0,NW,15.0,24.2,N/A,,Clear,320,2013-05-24 22:35:00
6:55 PM,63.0,36.7,38,30.15,10.0,NNW,11.5,19.6,N/A,,Clear,330,2013-05-24 22:55:00
7:15 PM,62.6,36.7,38,30.16,10.0,NNW,12.7,-,N/A,,Clear,330,2013-05-24 23:15:00
7:35 PM,61.0,33.6,36,30.16,10.0,NNW,15.0,26.5,N/A,,Clear,330,2013-05-24 23:35:00
7:55 PM,59.9,34.5,39,30.17,10.0,NNW,13.8,19.6,N/A,,Clear,340,2013-05-24 23:55:00
8:15 PM,58.3,34.9,41,30.18,10.0,NNW,13.8,19.6,N/A,,Clear,340,2013-05-25 00:15:00
8:35 PM,57.6,34.9,43,30.19,10.0,NNW,13.8,-,N/A,,Clear,340,2013-05-25 00:35:00
8:55 PM,55.6,36.1,48,30.19,10.0,NNW,16.1,21.9,N/A,,Clear,340,2013-05-25 00:55:00
9:15 PM,55.8,35.6,47,30.20,10.0,North,9.2,17.3,N/A,,Clear,350,2013-05-25 01:15:00
9:35 PM,54.3,36.0,50,30.20,10.0,North,8.1,-,N/A,,Clear,350,2013-05-25 01:35:00
9:55 PM,53.8,36.7,52,30.21,10.0,North,6.9,-,N/A,,Clear,350,2013-05-25 01:55:00
10:15 PM,53.1,36.3,53,30.22,10.0,Calm,Calm,-,N/A,,Clear,0,2013-05-25 02:15:00
10:35 PM,50.7,40.5,68,30.24,10.0,Calm,Calm,-,N/A,,Clear,0,2013-05-25 02:35:00
10:55 PM,49.3,39.6,69,30.24,10.0,Calm,Calm,-,N/A,,Clear,0,2013-05-25 02:55:00
11:15 PM,46.8,40.3,78,30.23,10.0,Calm,Calm,-,N/A,,Clear,0,2013-05-25 03:15:00
11:35 PM,45.9,40.6,82,30.23,10.0,NNW,5.8,-,N/A,,Clear,330,2013-05-25 03:35:00
11:55 PM,47.7,39.4,73,30.23,10.0,NNW,5.8,-,N/A,,Clear,330,2013-05-25 03:55:00